Regional Weather Roundup
Issued by NWS

Home | Current Version | Previous Version | Graphics & Text | Print | Product List | Glossary On
Versions: 1 2 3 4 5 6 7 8 9 10 11 12 13 14 15 16 17 18 19 20 21 22 23 24 25 26 27 28 29 30 31 32 33 34 35 36 37 38 39 40 41 42 43 44 45 46 47 48 49 50
000
ASUS43 KDMX 250007
RWRIA

WEATHER ROUNDUP FOR IOWA
NATIONAL WEATHER SERVICE DES MOINES IA
600 PM CST MON NOV 24 2014

NOTE: "FAIR" INDICATES FEW OR NO CLOUDS BELOW 12,000 FEET WITH NO
SIGNIFICANT WEATHER AND/OR OBSTRUCTIONS TO VISIBILITY.

* - THESE STATIONS ARE NOT NWS STATIONS...THUS NOT UNDER NWS
QUALITY CONTROL.  THEY ALSO DO NOT REPORT WEATHER SUCH
AS PRECIPITATION OR FOG.

IAZ001>003-012>014-020>022-031>034-043>046-250100-
   NORTHWEST IOWA

CITY           SKY/WX    TMP DP  RH WIND       PRES   REMARKS
CARROLL *      CLOUDY    25  16  68 NW20      29.86R WCI  11
CHEROKEE *     CLOUDY    24  16  73 NW18G26   29.88R WCI   9
DENISON *      CLOUDY    27  16  63 NW15G28   29.88R WCI  15
LE MARS *      CLOUDY    27  16  63 NW16G25   29.92R WCI  14
ORANGE CITY *  PTCLDY    25  16  68 NW21G29   29.88R WCI  10
SHELDON *      CLOUDY    21  16  79 NW20G29   29.86R WCI   6
SIOUX CITY     CLEAR     27  15  61 NW20G26   29.94R WCI  13
6HR MIN TEMP:  25; 6HR MAX TEMP:  33; 6HR PCP: TRACE;

SPENCER        CLOUDY    22  13  68 NW20G28   29.84R WCI   7
6HR MIN TEMP:  21; 6HR MAX TEMP:  24;

STORM LAKE *   CLOUDY    21  14  73 NW28G38   29.85R WCI   3
$$

IAZ055>058-069>071-079>083-090>094-250100-
   SOUTHWEST IOWA

CITY           SKY/WX    TMP DP  RH WIND       PRES   REMARKS
ATLANTIC *     MOCLDY    27  18  69 N9        29.89R WCI  17
AUDUBON *      MOCLDY    27  14  59 NW9G22    29.87R WCI  17
CLARINDA *     CLEAR     32  19  59 NW13      29.92R WCI  22
COUNCIL BLFS * CLEAR     32  12  43 NW13G24   29.90R WCI  22
CRESTON *      MOCLDY    27  21  80 NW15      29.86R WCI  15
HARLAN  *      CLEAR     28  16  59 NW21G30   29.92R WCI  15
LAMONI         CLOUDY    30  20  66 NW20G28   29.86R WCI  17
6HR MIN TEMP:  29; 6HR MAX TEMP:  30; 6HR PCP: TRACE;

RED OAK *      CLEAR     30  18  59 NW6       29.91R WCI  24
SHENANDOAH *   CLEAR     34  18  51 NW12G18   29.93R WCI  25
$$

IAZ047>049-059>061-072>074-084-250100-
   CENTRAL IOWA

CITY           SKY/WX    TMP DP  RH WIND       PRES   REMARKS
AMES           CLOUDY    25  16  68 NW23G32   29.82R WCI  10
6HR MIN TEMP:  25; 6HR MAX TEMP:  26; 6HR PCP: TRACE;

ANKENY *       CLOUDY    27  19  74 W22G30    29.82R WCI  12
CHARITON *     CLOUDY    28  21  74 W14G22    29.84R WCI  17
DES MOINES     CLOUDY    28  17  63 NW22G30   29.83R WCI  14
6HR MIN TEMP:  27; 6HR MAX TEMP:  28; 6HR PCP: TRACE;

GRINNELL*      CLOUDY    27  21  80 W20G29    29.78R WCI  13
KNOXVILLE *    CLOUDY    27  19  74 W17G25    29.81R WCI  14
MARSHALLTOWN   CLOUDY    25  18  74 W28G36    29.77R WCI   9
6HR MIN TEMP:  23; 6HR MAX TEMP:  25; 6HR PCP: TRACE;

PELLA *        MOCLDY    28  20  73 W16G25    29.83R WCI  15
PERRY *        CLOUDY    27  19  74 NW17G26   29.85R WCI  14
$$

IAZ004>006-015-016-023>025-035-036-250100-
   NORTH CENTRAL IOWA

CITY           SKY/WX    TMP DP  RH WIND       PRES   REMARKS
ALGONA *       CLOUDY    21  14  73 NW17G28   29.81R WCI   7
CLARION *      FLURRIES  21  16  79 NW24G33   29.79R WCI   4
ESTHERVILLE    CLOUDY    19  11  70 NW32G46   29.81R WCI  -1
6HR MIN TEMP:  19; 6HR MAX TEMP:  23; 6HR PCP: TRACE;

FORT DODGE *   CLOUDY    23  12  63 NW15G24   29.83R WCI  10
MASON CITY     LGT SNOW  17  13  84 NW21      29.76R FOG     WCI   0
6HR MIN TEMP:  17; 6HR MAX TEMP:  20; 6HR PCP: TRACE;

FOREST CITY *  LGT SNOW  19  16  86 NW23G30   29.76R WCI   2
IOWA FALLS *   CLOUDY    23  18  80 W29G35    29.79R WCI   6
$$

IAZ007>011-017>019-026>030-037>042-050>054-066-250100-
   NORTHEAST IOWA

CITY           SKY/WX    TMP DP  RH WIND       PRES   REMARKS
CEDAR RAPIDS   FLURRIES  25  21  85 W17       29.74R WCI  12
6HR MIN TEMP:  23; 6HR MAX TEMP:  25; 6HR PCP: TRACE;

CHARLES CITY * LGT SNOW  18  12  79 NW17G29   29.74R WCI   2
CLINTON *      CLOUDY    25  19  80 W18G26    29.74R WCI  11
DECORAH *      CLOUDY    18  12  79 NW18G26   29.67R HAZE    WCI   2
DUBUQUE        CLOUDY    21  17  84 W23G33    29.67R WCI   5
6HR MIN TEMP:  21; 6HR MAX TEMP:  25; 6HR PCP: TRACE;

MONTICELLO *   CLOUDY    23  19  86 W23       29.71R WCI   7
OELWEIN *      CLOUDY    21  16  79 W16G25    29.72R WCI   7
WATERLOO       CLOUDY    22  15  75 NW23G32   29.75R WCI   6
6HR MIN TEMP:  20; 6HR MAX TEMP:  22; 6HR PCP:  0.01;

$$

IAZ064-065-067-068-078-250100-
   EAST CENTRAL IOWA

CITY           SKY/WX    TMP DP  RH WIND       PRES   REMARKS
DAVENPORT      CLOUDY    25  20  81 W23G29    29.74R WCI  10
6HR MIN TEMP:  25; 6HR MAX TEMP:  27; 6HR PCP:  0.02;

MT. PLEASANT * CLOUDY    27  22  80 W12       29.81R WCI  17
MUSCATINE *    CLOUDY    28  23  80 W20       29.79R WCI  15
QUAD CITIES    CLOUDY    27  21  78 W22G29    29.75R WCI  13
6HR MIN TEMP:  26; 6HR MAX TEMP:  29; 6HR PCP:  0.02;

$$

IAZ062-063-075>077-085>089-095>099-250100-
   SOUTHEAST IOWA

CITY           SKY/WX    TMP DP  RH WIND       PRES   REMARKS
BURLINGTON     CLOUDY    29  24  82 W10       29.81R WCI  20
6HR MIN TEMP:  28; 6HR MAX TEMP:  29; 6HR PCP: TRACE;

FAIRFIELD *    CLOUDY    28  21  74 W17G29    29.81R WCI  16
FORT MADISON * CLOUDY    30  25  80 W16       29.83R WCI  19
KEOKUK *       CLOUDY    30  27  86 W12G20    29.83R WCI  21
OSKALOOSA *    CLOUDY    27  21  78 W25       29.81R WCI  12
CENTERVILLE *  CLOUDY    28  23  80 W15G22    29.85R WCI  17
OTTUMWA        CLOUDY    28  20  71 W13       29.81R WCI  17
6HR MIN TEMP:  26; 6HR MAX TEMP:  28; 6HR PCP: TRACE;

WASHINGTON *   CLOUDY    28  25  86 W17G28    29.79R WCI  16
$$

ABBREVIATIONS USED IN REMARKS
   TC - TEMPERATURES IN CELSIUS
  WCI - WIND CHILL INDEX
   HX - HEAT INDEX
  VSB - VISIBILITY
$$




USA.gov is the U.S. government's official web portal to all federal, state and local government web resources and services.